Location: Berlin
(42.3812°N, 71.6370°W)
Time: 23:36:47
(UTC+00:00)

Aureole 3 Rocket - Pass Details

Date: 15 November 2025
Orbit: 398 x 1690 km, 82.5° (Epoch: 09 December)

Event Time Altitude Azimuth Distance (km) Brightness Sun altitude
Rises 09:40:14 0° 355° (N) 3,127 6.6 -21.7°
Reaches altitude 10° 09:42:16 10° 358° (N) 2,354 5.9 -21.3°
Maximum altitude 09:47:38 69° 82° (E) 1,058 4.3 -20.3°
Drops below altitude 10° 09:55:06 10° 165° (SSE) 3,247 7.0 -18.9°
Sets 09:58:18 0° 167° (SSE) 4,401 7.7 -18.4°
